TimeMST,TemperatureF,Dew PointF,Humidity,Sea Level PressureIn,VisibilityMPH,Wind Direction,Wind SpeedMPH,Gust SpeedMPH,PrecipitationIn,Events,Conditions,WindDirDegrees,DateUTC
12:53 AM,30.9,21.9,69,30.05,10.0,North,5.8,-,N/A,,Clear,350,2012-12-05 07:53:00
1:53 AM,28.0,19.9,72,30.01,10.0,NNW,5.8,-,N/A,,Clear,330,2012-12-05 08:53:00
2:53 AM,32.0,23.0,69,29.99,10.0,NNW,6.9,-,N/A,,Clear,330,2012-12-05 09:53:00
3:53 AM,30.0,23.0,75,29.99,10.0,North,5.8,-,N/A,,Clear,360,2012-12-05 10:53:00
4:53 AM,30.9,24.1,76,29.99,10.0,NNW,4.6,-,N/A,,Clear,340,2012-12-05 11:53:00
5:53 AM,30.9,25.0,79,29.98,10.0,Calm,Calm,-,N/A,,Clear,0,2012-12-05 12:53:00
7:53 AM,28.9,23.0,78,29.98,10.0,Calm,Calm,-,N/A,,Clear,0,2012-12-05 14:53:00
8:53 AM,37.9,28.0,68,29.92,10.0,SSE,4.6,-,N/A,,Clear,150,2012-12-05 15:53:00
9:53 AM,46.9,30.0,52,29.89,10.0,Calm,Calm,-,N/A,,Clear,0,2012-12-05 16:53:00
10:53 AM,46.0,30.0,54,29.86,10.0,Calm,Calm,-,N/A,,Clear,0,2012-12-05 17:53:00
11:53 AM,53.1,30.9,43,29.83,10.0,Calm,Calm,-,N/A,,Clear,0,2012-12-05 18:53:00
12:53 PM,54.0,30.0,40,29.81,10.0,Calm,Calm,-,N/A,,Clear,0,2012-12-05 19:53:00
1:53 PM,55.0,28.9,37,29.81,10.0,Calm,Calm,-,N/A,,Clear,0,2012-12-05 20:53:00
2:53 PM,52.0,30.9,45,29.83,10.0,North,3.5,-,N/A,,Clear,350,2012-12-05 21:53:00
3:53 PM,51.1,28.9,43,29.85,10.0,NW,18.4,-,N/A,,Clear,310,2012-12-05 22:53:00
4:53 PM,46.9,28.9,50,29.86,10.0,NW,17.3,-,N/A,,Clear,310,2012-12-05 23:53:00
5:53 PM,44.1,27.0,51,29.89,10.0,NW,16.1,-,N/A,,Clear,320,2012-12-06 00:53:00
6:53 PM,46.0,24.1,42,29.91,10.0,NW,21.9,31.1,N/A,,Clear,310,2012-12-06 01:53:00
7:53 PM,43.0,23.0,45,29.95,10.0,NW,19.6,-,N/A,,Clear,310,2012-12-06 02:53:00
8:53 PM,43.0,21.9,43,29.90,10.0,NW,19.6,-,N/A,,Clear,310,2012-12-06 03:53:00
9:53 PM,42.1,21.9,45,29.88,10.0,NW,18.4,-,N/A,,Clear,310,2012-12-06 04:53:00
10:53 PM,43.0,21.0,42,29.88,10.0,WNW,24.2,27.6,N/A,,Clear,300,2012-12-06 05:53:00
11:53 PM,39.0,21.0,49,29.89,10.0,West,12.7,-,N/A,,Clear,270,2012-12-06 06:53:00